Change the Weather History Date:

Tuesday, March 13, 2012

  Actual Average Record
Temperature  
Mean Temperature 70 °F -  
Max Temperature 79 °F 81 °F 86 °F (1961)
Min Temperature 62 °F 62 °F 58 °F (1955)
Cooling Degree Days 6    
Growing Degree Days 20 (Base 50)    
Moisture  
Dew Point 57 °F    
Average Humidity 62    
Maximum Humidity 78    
Minimum Humidity 48    
Precipitation  
Precipitation 0.00 in - - ()
Sea Level Pressure  
Sea Level Pressure 30.09 in    
Wind  
Wind Speed 4 mph (NNW)    
Max Wind Speed 14 mph    
Max Gust Speed 18 mph    
Visibility 10 miles    
Events      
Averages and records for this station are not official NWS values.
T = Trace of Precipitation, MM = Missing Value Source: NWS Daily Summary

Daily Weather History Graph

Daily Weather History Graph

Search for Another Location

Airport or City:

Trip Planner

Search our weather history database for the weather conditions in past years. The results will help you decide how hot, cold, wet, or windy it might be!

Date:

Astronomy

Mar. 13, 2012 Rise Set
Actual Time 6:48 AM HST 6:48 PM HST
Civil Twilight 6:26 AM HST 7:10 PM HST
Nautical Twilight 6:00 AM HST 7:36 PM HST
Astronomical Twilight 5:34 AM HST 8:02 PM HST
Moon No Moon Rise 10:59 AM HST (3/13)
Length of Visible Light 12h 43m
Length of Day
11h 59m
Waning Gibbous, 63% of the Moon is Illuminated
Mar 13
Waning Gibbous
Mar 14
Last Quarter
Mar 22
New
Mar 30
First Quarter
Apr 6
Full

Hourly Weather History & Observations

Time (HST) Temp. Dew Point Humidity Pressure Visibility Wind Dir Wind Speed Gust Speed Precip Events Conditions
12:56 AM 64.9 °F 55.9 °F 73% 30.12 in 10.0 mi Calm Calm - N/A   Clear
1:56 AM 64.9 °F 55.9 °F 73% 30.11 in 10.0 mi ENE 5.8 mph - N/A   Clear
2:56 AM 64.9 °F 55.0 °F 70% 30.09 in 10.0 mi ENE 6.9 mph - N/A   Clear
3:56 AM 64.0 °F 55.9 °F 75% 30.09 in 10.0 mi Calm Calm - N/A   Clear
4:56 AM 64.9 °F 55.9 °F 73% 30.07 in 10.0 mi Variable 3.5 mph - N/A   Mostly Cloudy
5:56 AM 62.1 °F 55.0 °F 78% 30.08 in 10.0 mi ESE 5.8 mph - N/A   Clear
6:56 AM 63.0 °F 55.9 °F 78% 30.10 in 10.0 mi East 4.6 mph - N/A   Clear
7:56 AM 68.0 °F 57.9 °F 70% 30.11 in 10.0 mi ENE 3.5 mph - N/A   Clear
8:56 AM 75.0 °F 57.9 °F 55% 30.12 in 10.0 mi East 3.5 mph - N/A   Clear
9:56 AM 75.9 °F 59.0 °F 56% 30.13 in 10.0 mi WSW 3.5 mph - N/A   Scattered Clouds
10:56 AM 77.0 °F 57.9 °F 52% 30.13 in 10.0 mi West 5.8 mph - N/A   Scattered Clouds
11:56 AM 77.0 °F 57.9 °F 52% 30.11 in 10.0 mi West 9.2 mph - N/A   Scattered Clouds
12:56 PM 78.1 °F 57.0 °F 48% 30.08 in 10.0 mi West 10.4 mph - N/A   Mostly Cloudy
1:56 PM 79.0 °F 59.0 °F 50% 30.06 in 10.0 mi WNW 10.4 mph - N/A   Scattered Clouds
2:56 PM 78.1 °F 59.0 °F 52% 30.04 in 10.0 mi WNW 4.6 mph - N/A   Partly Cloudy
3:56 PM 78.1 °F 60.1 °F 54% 30.02 in 10.0 mi SW 4.6 mph - N/A   Partly Cloudy
4:56 PM 77.0 °F 59.0 °F 54% 30.03 in 10.0 mi SSE 4.6 mph - N/A   Overcast
5:56 PM 78.1 °F 57.9 °F 50% 30.04 in 10.0 mi North 13.8 mph 18.4 mph N/A   Partly Cloudy
6:56 PM 75.9 °F 57.0 °F 52% 30.06 in 10.0 mi North 13.8 mph - N/A   Scattered Clouds
7:56 PM 73.9 °F 54.0 °F 50% 30.08 in 10.0 mi North 4.6 mph - N/A   Partly Cloudy
8:56 PM 69.1 °F 55.0 °F 61% 30.09 in 10.0 mi Calm Calm - N/A   Scattered Clouds
9:56 PM 69.1 °F 55.9 °F 63% 30.12 in 10.0 mi Calm Calm - N/A   Partly Cloudy
10:56 PM 66.9 °F 57.0 °F 70% 30.12 in 10.0 mi Calm Calm - N/A   Scattered Clouds
11:56 PM 69.1 °F 57.9 °F 68% 30.12 in 10.0 mi Calm Calm - N/A   Overcast